Flag for South Africa Weather past 2 weeks in Bloemfontein, South Africa

Now
88 °F

Passing clouds.


Feels Like: 84 °F
Forecast: 64 / 85 °F
Wind: 9 mph from Northwest

Location: Bloemfontein Airport

Current Time: Sep 16, 2014 at 4:26:48 PM

Latest Report: Sep 16, 2014 at 4:00 PM


Visibility: N/A

Pressure: 30.09 "Hg

Humidity: 16%

Dew point: 36 °F

Location of BloemfonteinLocation

Historic Weather in Bloemfontein — Graph

°F

Bloemfontein temperature yesterday

Maximum temperature yesterday: 90 °F (at 3:00 PM)
Minimum temperature yesterday: 54 °F (at 6:00 AM)
Average temperature yesterday: 74 °F

Past Weeks' High & Low Weather Summary

 TemperatureHumidityPressure
High90 °F (Sep 14, 2:00 PM)56% (Sep 2, 6:00 AM)30.45 "Hg (Sep 2, 6:00 AM)
Low32 °F (Sep 2, 7:00 AM)5% (Sep 8, 2:00 PM)30.01 "Hg (Sep 11, 5:00 PM)
Average63 °F25%30.27 "Hg
* Reported Sep 1 3:00 PM — Sep 16 3:00 PM, Bloemfontein, Weather by CustomWeather, © 2014

Note: Actual official high and low records may vary slightly from our data, if they occured in-between our weather recording intervals... More about our weather records

Advertising

Bloemfontein weather history for previous 24 hours

 ConditionsComfort  
Time TempWeatherWind HumidityBarometerVisibility
3:00 PM
Sep 16
90 °FSunny.3 mph16%30.12 "Hg10 mi
2:00 PM90 °FPassing clouds.9 mph16%30.12 "HgN/A
1:00 PM88 °FPassing clouds.3 mph17%30.15 "HgN/A
12:00 PM86 °FSunny.6 mph19%30.18 "Hg10 mi
11:00 AM82 °FPassing clouds.6 mph20%30.21 "HgN/A
10:00 AM77 °FPassing clouds.7 mph24%30.24 "HgN/A
9:00 AM72 °FPassing clouds.6 mph31%30.24 "HgN/A
8:00 AM68 °FSunny.No wind33%30.30 "Hg10 mi
7:00 AM55 °FPassing clouds.3 mph55%30.24 "HgN/A
6:00 AM57 °FSunny.8 mph55%30.21 "Hg10 mi
5:00 AM57 °FPassing clouds.3 mph51%30.21 "HgN/A
4:00 AM57 °FRefreshingly cool.1 mph51%30.21 "HgN/A
3:00 AM61 °FRefreshingly cool.1 mph48%30.21 "HgN/A
2:00 AM64 °FMild.3 mph37%30.27 "HgN/A
1:00 AM64 °FMild.7 mph43%30.24 "HgN/A
12:00 AM64 °FMild.6 mph43%30.24 "HgN/A
11:00 PM
Sep 15
66 °FMild.3 mph35%30.27 "HgN/A
10:00 PM68 °FMild.7 mph40%30.27 "HgN/A
9:00 PM70 °FMild.7 mph38%30.24 "HgN/A
8:00 PM75 °FClear.5 mph25%30.21 "Hg10 mi
7:00 PM77 °FClear.6 mph22%30.21 "Hg10 mi
6:00 PM82 °FClear.9 mph19%30.21 "Hg10 mi
5:00 PM88 °FSunny.10 mph16%30.18 "Hg10 mi
4:00 PM88 °FSunny.13 mph17%30.18 "Hg10 mi
Weather by CustomWeather, © 2014

See weather overviewHow to use our weather pages